| time (UTC) | temp C | wind direction | speed KPH | gust KPH | rain 1hr cm | rain 24hr cm | rain mn cm | humidity % | barometer mb |
| 20260510153033 | 15 | 15 | 3.2 | 11.3 | 0.00 | 0.00 | 0.00 | 61 | 1017.8 |
| 20260510151524 | 14 | 5 | 3.2 | 12.9 | 0.00 | 0.00 | 0.00 | 65 | 1017.7 |
| 20260510150033 | 14 | 46 | 1.6 | 11.3 | 0.00 | 0.00 | 0.00 | 64 | 1017.6 |
| 20260510144522 | 13 | 38 | 3.2 | 12.9 | 0.00 | 0.00 | 0.00 | 64 | 1017.4 |
| 20260510143021 | 13 | 19 | 3.2 | 11.3 | 0.00 | 0.00 | 0.00 | 64 | 1017.1 |
| 20260510141526 | 13 | 31 | 1.6 | 11.3 | 0.00 | 0.00 | 0.00 | 67 | 1017.0 |
| 20260510140016 | 12 | 36 | 1.6 | 11.3 | 0.00 | 0.00 | 0.00 | 69 | 1017.1 |
| 20260510134514 | 12 | 50 | 0.0 | 9.7 | 0.00 | 0.00 | 0.00 | 69 | 1016.8 |
| 20260510133013 | 11 | 47 | 1.6 | 12.9 | 0.00 | 0.00 | 0.00 | 68 | 1016.7 |
| 20260510131511 | 11 | 13 | 3.2 | 8.0 | 0.00 | 0.00 | 0.00 | 71 | 1016.6 |
| 20260510130010 | 11 | 45 | 3.2 | 8.0 | 0.00 | 0.00 | 0.00 | 72 | 1016.4 |
| 20260510124508 | 11 | 18 | 1.6 | 9.7 | 0.00 | 0.00 | 0.00 | 73 | 1016.0 |
| 20260510123008 | 11 | 24 | 1.6 | 8.0 | 0.00 | 0.00 | 0.00 | 73 | 1016.1 |
| 20260510121504 | 11 | 23 | 4.8 | 9.7 | 0.00 | 0.00 | 0.00 | 73 | 1016.0 |
| 20260510120002 | 11 | 30 | 1.6 | 8.0 | 0.00 | 0.00 | 0.00 | 74 | 1015.7 |
| 20260510114603 | 11 | 5 | 1.6 | 6.4 | 0.00 | 0.00 | 0.00 | 75 | 1015.6 |
| 20260510113057 | 11 | 18 | 0.0 | 6.4 | 0.00 | 0.00 | 0.00 | 77 | 1015.1 |
| 20260510111555 | 11 | 34 | 0.0 | 6.4 | 0.00 | 0.00 | 0.00 | 77 | 1014.9 |
| 20260510110053 | 11 | 360 | 1.6 | 11.3 | 0.00 | 0.00 | 0.00 | 78 | 1014.8 |
| 20260510104550 | 11 | 30 | 1.6 | 6.4 | 0.00 | 0.00 | 0.00 | 80 | 1014.4 |
| 20260510103057 | 12 | 360 | 3.2 | 9.7 | 0.00 | 0.00 | 0.00 | 81 | 1014.1 |
| 20260510101548 | 12 | 28 | 1.6 | 9.7 | 0.00 | 0.00 | 0.00 | 81 | 1013.7 |
| 20260510100040 | 12 | 351 | 1.6 | 9.7 | 0.00 | 0.00 | 0.00 | 81 | 1013.5 |
| 20260510094543 | 13 | 355 | 3.2 | 11.3 | 0.00 | 0.00 | 0.00 | 80 | 1013.2 |
| 20260510093035 | 13 | 337 | 3.2 | 8.0 | 0.00 | 0.00 | 0.00 | 81 | 1013.0 |
| 20260510091532 | 13 | 348 | 1.6 | 11.3 | 0.00 | 0.00 | 0.00 | 81 | 1012.5 |
| 20260510090031 | 13 | 322 | 0.0 | 6.4 | 0.00 | 0.00 | 0.00 | 81 | 1012.4 |
| 20260510084527 | 13 | 315 | 3.2 | 8.0 | 0.00 | 0.00 | 0.00 | 80 | 1011.9 |
| 20260510083025 | 14 | 342 | 3.2 | 9.7 | 0.00 | 0.00 | 0.00 | 80 | 1011.7 |
| 20260510081535 | 14 | 247 | 0.0 | 6.4 | 0.00 | 0.00 | 0.00 | 78 | 1011.4 |
| 20260510080027 | 14 | 287 | 0.0 | 8.0 | 0.00 | 0.00 | 0.00 | 77 | 1011.4 |
| 20260510074524 | 14 | 239 | 0.0 | 9.7 | 0.00 | 0.00 | 0.00 | 77 | 1011.6 |
| 20260510073023 | 15 | 335 | 0.0 | 6.4 | 0.00 | 0.00 | 0.00 | 76 | 1011.4 |
| 20260510071522 | 15 | 248 | 1.6 | 8.0 | 0.00 | 0.00 | 0.00 | 76 | 1011.5 |
| 20260510070024 | 15 | 286 | 1.6 | 4.8 | 0.00 | 0.00 | 0.00 | 75 | 1011.4 |
| 20260510064521 | 16 | 219 | 0.0 | 8.0 | 0.00 | 0.00 | 0.00 | 73 | 1011.4 |
| 20260510063021 | 16 | 215 | 4.8 | 14.5 | 0.00 | 0.00 | 0.00 | 75 | 1011.6 |
| 20260510061525 | 16 | 196 | 4.8 | 14.5 | 0.00 | 0.00 | 0.00 | 78 | 1011.7 |
| 20260510060018 | 16 | 237 | 8.0 | 24.1 | 0.00 | 0.00 | 0.00 | 79 | 1011.8 |
| 20260510054516 | 16 | 263 | 1.6 | 9.7 | 0.00 | 0.00 | 0.00 | 79 | 1011.7 |
| 20260510053014 | 16 | 189 | 3.2 | 12.9 | 0.00 | 0.00 | 0.00 | 78 | 1011.6 |
| 20260510051526 | 16 | 206 | 6.4 | 14.5 | 0.00 | 0.00 | 0.00 | 77 | 1011.3 |
| 20260510050012 | 16 | 186 | 4.8 | 12.9 | 0.00 | 0.00 | 0.00 | 78 | 1011.4 |
| 20260510044510 | 15 | 187 | 3.2 | 12.9 | 0.00 | 0.00 | 0.00 | 79 | 1011.2 |
| 20260510043017 | 15 | 207 | 4.8 | 11.3 | 0.00 | 0.00 | 0.00 | 80 | 1011.3 |
| 20260510041504 | 14 | 175 | 3.2 | 9.7 | 0.00 | 0.00 | 0.00 | 81 | 1011.1 |
| 20260510040001 | 14 | 178 | 0.0 | 4.8 | 0.00 | 0.00 | 0.00 | 83 | 1011.0 |
| 20260510034607 | 14 | 174 | 0.0 | 3.2 | 0.00 | 0.00 | 0.00 | 82 | 1010.9 |
| 20260510033121 | 15 | 166 | 0.0 | 6.4 | 0.00 | 0.00 | 0.00 | 80 | 1010.7 |
| 20260510031603 | 15 | 173 | 0.0 | 6.4 | 0.00 | 0.00 | 0.00 | 79 | 1010.6 |
| 20260510030059 | 15 | 186 | 0.0 | 6.4 | 0.00 | 0.00 | 0.00 | 80 | 1010.7 |
| 20260510024612 | 15 | 173 | 0.0 | 6.4 | 0.00 | 0.00 | 0.00 | 81 | 1010.7 |
| 20260510023101 | 14 | 219 | 0.0 | 6.4 | 0.00 | 0.00 | 0.00 | 83 | 1010.6 |
| 20260510021558 | 14 | 182 | 0.0 | 4.8 | 0.00 | 0.00 | 0.00 | 82 | 1010.5 |
| 20260510020058 | 15 | 187 | 0.0 | 6.4 | 0.00 | 0.00 | 0.00 | 80 | 1010.2 |
| 20260510014614 | 15 | 182 | 0.0 | 4.8 | 0.00 | 0.00 | 0.00 | 78 | 1010.0 |
| 20260510013104 | 16 | 182 | 1.6 | 9.7 | 0.00 | 0.00 | 0.00 | 76 | 1009.9 |
| 20260510011555 | 16 | 172 | 0.0 | 1.6 | 0.00 | 0.00 | 0.00 | 75 | 1009.4 |
| 20260510010055 | 16 | 178 | 0.0 | 3.2 | 0.00 | 0.00 | 0.00 | 71 | 1009.6 |
| 20260510004600 | 17 | 194 | 0.0 | 3.2 | 0.00 | 0.00 | 0.00 | 68 | 1009.4 |
| 20260510003054 | 18 | 178 | 1.6 | 8.0 | 0.00 | 0.00 | 0.00 | 65 | 1009.2 |
| 20260510001553 | 18 | 167 | 3.2 | 9.7 | 0.00 | 0.00 | 0.00 | 61 | 1008.9 |
| 20260510000052 | 19 | 218 | 4.8 | 14.5 | 0.00 | 0.00 | 0.00 | 60 | 1008.8 |
| 20260509234553 | 19 | 221 | 3.2 | 11.3 | 0.00 | 0.00 | 0.00 | 61 | 1008.7 |
| 20260509233053 | 20 | 192 | 3.2 | 16.1 | 0.00 | 0.00 | 0.00 | 60 | 1008.6 |
| 20260509231604 | 20 | 184 | 4.8 | 16.1 | 0.00 | 0.00 | 0.00 | 60 | 1008.5 |
| 20260509230051 | 20 | 211 | 4.8 | 25.7 | 0.00 | 0.00 | 0.00 | 57 | 1008.5 |
| 20260509224551 | 20 | 202 | 6.4 | 19.3 | 0.00 | 0.00 | 0.00 | 58 | 1008.4 |
| 20260509223053 | 20 | 138 | 4.8 | 24.1 | 0.00 | 0.00 | 0.00 | 57 | 1008.4 |
| 20260509221549 | 20 | 221 | 6.4 | 22.5 | 0.00 | 0.00 | 0.00 | 59 | 1008.5 |
| 20260509220047 | 21 | 159 | 3.2 | 24.1 | 0.00 | 0.00 | 0.00 | 59 | 1008.6 |
| 20260509214546 | 20 | 207 | 4.8 | 24.1 | 0.00 | 0.00 | 0.00 | 59 | 1008.6 |
| 20260509213046 | 20 | 227 | 4.8 | 25.7 | 0.00 | 0.00 | 0.00 | 61 | 1008.7 |
| 20260509211553 | 21 | 196 | 8.0 | 16.1 | 0.00 | 0.00 | 0.00 | 58 | 1008.7 |
| 20260509210052 | 20 | 192 | 8.0 | 16.1 | 0.00 | 0.00 | 0.00 | 61 | 1008.9 |
| 20260509204539 | 20 | 199 | 6.4 | 24.1 | 0.00 | 0.00 | 0.00 | 62 | 1009.0 |
| 20260509203037 | 20 | 222 | 3.2 | 27.4 | 0.00 | 0.00 | 0.00 | 61 | 1009.1 |
| 20260509201536 | 20 | 225 | 12.9 | 22.5 | 0.00 | 0.00 | 0.00 | 60 | 1009.1 |
| 20260509200036 | 20 | 140 | 11.3 | 22.5 | 0.00 | 0.00 | 0.00 | 62 | 1009.3 |
| 20260509194534 | 20 | 209 | 11.3 | 27.4 | 0.00 | 0.00 | 0.00 | 63 | 1009.4 |
| 20260509193029 | 19 | 217 | 6.4 | 24.1 | 0.00 | 0.00 | 0.00 | 66 | 1009.6 |
| 20260509191528 | 18 | 238 | 4.8 | 19.3 | 0.00 | 0.00 | 0.00 | 69 | 1009.8 |
| 20260509190025 | 18 | 215 | 8.0 | 17.7 | 0.00 | 0.00 | 0.00 | 71 | 1009.9 |
| 20260509184533 | 18 | 207 | 11.3 | 24.1 | 0.00 | 0.00 | 0.00 | 70 | 1010.0 |
| 20260509183023 | 18 | 229 | 4.8 | 17.7 | 0.00 | 0.00 | 0.00 | 73 | 1009.9 |
| 20260509181519 | 17 | 217 | 4.8 | 12.9 | 0.00 | 0.00 | 0.00 | 75 | 1010.2 |
| 20260509180023 | 17 | 197 | 8.0 | 19.3 | 0.00 | 0.00 | 0.00 | 74 | 1010.3 |
| 20260509174516 | 17 | 196 | 6.4 | 19.3 | 0.00 | 0.00 | 0.00 | 77 | 1010.4 |
| 20260509173046 | 17 | 156 | 8.0 | 17.7 | 0.00 | 0.00 | 0.00 | 77 | 1010.5 |
| 20260509171522 | 16 | 202 | 4.8 | 16.1 | 0.00 | 0.00 | 0.00 | 79 | 1010.4 |
| 20260509170014 | 16 | 236 | 8.0 | 16.1 | 0.00 | 0.00 | 0.00 | 80 | 1010.4 |
| 20260509164508 | 16 | 225 | 6.4 | 14.5 | 0.00 | 0.00 | 0.00 | 81 | 1010.7 |
| 20260509163008 | 15 | 221 | 6.4 | 19.3 | 0.00 | 0.00 | 0.00 | 81 | 1010.7 |
| 20260509161504 | 15 | 246 | 8.0 | 17.7 | 0.00 | 0.00 | 0.00 | 83 | 1010.6 |
| 20260509154558 | 14 | 215 | 3.2 | 14.5 | 0.00 | 0.00 | 0.00 | 87 | 1010.4 |